GLO8001 SBCT-SBCY

Flight info

Callsign GLO8001
Flight time 2h 1m
Altitude 38000
Route GEGOB UZ63 /F390 GRD TOSAR
Aircraft B738/M-V/N

Departure

Time 2026-05-03 21:47
Airport Curitiba-Afonso Pena International Airport (SBCT)

Arrival

Time 2026-05-03 23:49
Airport Várzea Grande–Marechal Rondon International Airport (SBCY)
Time Latitude Longitude Altitude Speed Heading
2026-05-03 21:34 -25.53558 -49.17220 2984 ft 0 kts 223°
2026-05-03 21:38 -25.53545 -49.17204 2984 ft 3 kts 263°
2026-05-03 21:38 -25.53549 -49.17186 2984 ft 1 kts 314°
2026-05-03 21:38 -25.53550 -49.17186 2984 ft 0 kts 314°
2026-05-03 21:41 -25.53548 -49.17189 2984 ft 2 kts 314°
2026-05-03 21:41 -25.53516 -49.17224 2984 ft 11 kts 314°
2026-05-03 21:41 -25.53441 -49.17277 2984 ft 14 kts 338°
2026-05-03 21:41 -25.53354 -49.17328 2985 ft 14 kts 328°
2026-05-03 21:42 -25.53270 -49.17384 2986 ft 14 kts 329°
2026-05-03 21:42 -25.53186 -49.17445 2986 ft 15 kts 329°
2026-05-03 21:42 -25.53104 -49.17506 2987 ft 14 kts 306°
2026-05-03 21:42 -25.53039 -49.17588 2988 ft 14 kts 314°
2026-05-03 21:43 -25.52985 -49.17681 2988 ft 15 kts 278°
2026-05-03 21:43 -25.52980 -49.17798 2989 ft 15 kts 272°
2026-05-03 21:43 -25.52941 -49.17905 2990 ft 16 kts 316°
2026-05-03 21:43 -25.52851 -49.17984 2988 ft 18 kts 347°
2026-05-03 21:44 -25.52729 -49.17996 2990 ft 17 kts 358°
2026-05-03 21:44 -25.52604 -49.18002 2990 ft 18 kts 358°
2026-05-03 21:44 -25.52479 -49.18013 2990 ft 18 kts 344°
2026-05-03 21:44 -25.52384 -49.18093 2991 ft 17 kts 314°
2026-05-03 21:45 -25.52302 -49.18181 2992 ft 15 kts 318°
2026-05-03 21:45 -25.52213 -49.18233 2992 ft 14 kts 319°
2026-05-03 21:45 -25.52230 -49.18259 2992 ft 5 kts 158°
2026-05-03 21:45 -25.52247 -49.18245 2992 ft 0 kts 133°
2026-05-03 21:46 -25.52248 -49.18243 2992 ft 0 kts 133°
2026-05-03 21:46 -25.52250 -49.18241 2992 ft 0 kts 132°
2026-05-03 21:46 -25.52294 -49.18187 2992 ft 40 kts 133°
2026-05-03 21:47 -25.52689 -49.17745 2987 ft 119 kts 135°
2026-05-03 21:47 -25.53424 -49.16952 3156 ft 169 kts 134°
2026-05-03 21:47 -25.54359 -49.15996 3761 ft 200 kts 135°
2026-05-03 21:47 -25.55607 -49.15073 4076 ft 239 kts 160°
2026-05-03 21:48 -25.57371 -49.14936 4393 ft 267 kts 184°
2026-05-03 21:48 -25.58593 -49.15252 4570 ft 279 kts 199°
2026-05-03 21:48 -25.60266 -49.16400 5229 ft 288 kts 223°
2026-05-03 21:48 -25.61394 -49.18203 6098 ft 283 kts 249°
2026-05-03 21:49 -25.61717 -49.20304 6439 ft 275 kts 274°
2026-05-03 21:49 -25.61421 -49.22394 6485 ft 273 kts 283°
2026-05-03 21:49 -25.61003 -49.24429 6497 ft 268 kts 284°
2026-05-03 21:49 -25.60580 -49.26434 6495 ft 267 kts 284°
2026-05-03 21:50 -25.60163 -49.28451 6495 ft 269 kts 284°
2026-05-03 21:50 -25.59759 -49.30452 6506 ft 270 kts 284°
2026-05-03 21:50 -25.59354 -49.32487 6499 ft 270 kts 284°
2026-05-03 21:50 -25.58952 -49.34517 6495 ft 269 kts 283°
2026-05-03 21:51 -25.58369 -49.36472 6480 ft 267 kts 303°
2026-05-03 21:51 -25.57244 -49.38092 6482 ft 265 kts 309°
2026-05-03 21:51 -25.56088 -49.39677 6490 ft 264 kts 309°
2026-05-03 21:51 -25.54931 -49.41265 6489 ft 265 kts 309°
2026-05-03 21:52 -25.53776 -49.42853 6478 ft 265 kts 309°
2026-05-03 21:52 -25.52620 -49.44447 6473 ft 266 kts 309°
2026-05-03 21:52 -25.51463 -49.46044 6484 ft 267 kts 309°
2026-05-03 21:52 -25.50300 -49.47652 6485 ft 268 kts 309°
2026-05-03 21:53 -25.49136 -49.49261 6478 ft 268 kts 309°
2026-05-03 21:53 -25.47971 -49.50873 6480 ft 268 kts 309°
2026-05-03 21:53 -25.46807 -49.52480 6476 ft 267 kts 309°
2026-05-03 21:53 -25.45647 -49.54083 6478 ft 266 kts 309°
2026-05-03 21:54 -25.44489 -49.55686 6470 ft 267 kts 308°
2026-05-03 21:54 -25.43390 -49.57340 6543 ft 269 kts 302°
2026-05-03 21:54 -25.42419 -49.59129 7193 ft 272 kts 300°
2026-05-03 21:54 -25.41478 -49.60925 8162 ft 270 kts 299°
2026-05-03 21:55 -25.40530 -49.62734 8991 ft 274 kts 299°
2026-05-03 21:55 -25.39570 -49.64554 9758 ft 280 kts 299°
2026-05-03 21:55 -25.38572 -49.66434 10585 ft 283 kts 299°
2026-05-03 21:55 -25.37547 -49.68358 10840 ft 307 kts 299°
2026-05-03 21:56 -25.36420 -49.70462 11083 ft 328 kts 299°
2026-05-03 21:56 -25.35236 -49.72661 11703 ft 336 kts 299°
2026-05-03 21:56 -25.34032 -49.74893 12436 ft 340 kts 299°
2026-05-03 21:56 -25.32823 -49.77131 13305 ft 339 kts 298°
2026-05-03 21:57 -25.31609 -49.79380 14014 ft 343 kts 298°
2026-05-03 21:57 -25.30380 -49.81655 14673 ft 346 kts 298°
2026-05-03 21:57 -25.29139 -49.83949 15306 ft 349 kts 299°
2026-05-03 21:57 -25.27551 -49.86014 15925 ft 359 kts 317°
2026-05-03 21:58 -25.25390 -49.87459 16569 ft 368 kts 331°
2026-05-03 21:58 -25.23034 -49.88611 17184 ft 372 kts 332°
2026-05-03 21:58 -25.20628 -49.89734 17756 ft 377 kts 333°
2026-05-03 21:58 -25.18192 -49.90860 18338 ft 381 kts 333°
2026-05-03 21:59 -25.15735 -49.92001 18881 ft 384 kts 332°
2026-05-03 21:59 -25.13267 -49.93154 19410 ft 385 kts 332°
2026-05-03 21:59 -25.10802 -49.94315 20000 ft 386 kts 331°
2026-05-03 21:59 -25.08352 -49.95476 20498 ft 389 kts 330°
2026-05-03 22:00 -25.05854 -49.96662 21047 ft 391 kts 330°
2026-05-03 22:00 -25.03352 -49.97852 21605 ft 393 kts 330°
2026-05-03 22:00 -25.00837 -49.99047 22165 ft 394 kts 329°
2026-05-03 22:00 -24.98315 -50.00248 22662 ft 397 kts 329°
2026-05-03 22:01 -24.95768 -50.01460 23150 ft 399 kts 329°
2026-05-03 22:01 -24.93208 -50.02678 23661 ft 401 kts 328°
2026-05-03 22:01 -24.90638 -50.03901 24074 ft 403 kts 328°
2026-05-03 22:01 -24.88054 -50.05128 24479 ft 405 kts 328°
2026-05-03 22:02 -24.85466 -50.06355 24899 ft 407 kts 328°
2026-05-03 22:02 -24.82859 -50.07591 25327 ft 408 kts 328°
2026-05-03 22:02 -24.80248 -50.08829 25739 ft 409 kts 328°
2026-05-03 22:02 -24.77624 -50.10073 26165 ft 411 kts 328°
2026-05-03 22:03 -24.74991 -50.11320 26553 ft 413 kts 328°
2026-05-03 22:03 -24.72351 -50.12571 26902 ft 415 kts 328°
2026-05-03 22:03 -24.69686 -50.13833 27247 ft 417 kts 328°
2026-05-03 22:03 -24.67015 -50.15098 27601 ft 419 kts 328°
2026-05-03 22:04 -24.64326 -50.16369 27968 ft 421 kts 328°
2026-05-03 22:04 -24.61634 -50.17641 28346 ft 422 kts 328°
2026-05-03 22:04 -24.58933 -50.18916 28717 ft 423 kts 328°
2026-05-03 22:04 -24.56221 -50.20197 29073 ft 425 kts 328°
2026-05-03 22:05 -24.53496 -50.21485 29398 ft 427 kts 328°
2026-05-03 22:05 -24.50754 -50.22779 29707 ft 429 kts 328°
2026-05-03 22:05 -24.48044 -50.24057 30020 ft 431 kts 328°
2026-05-03 22:05 -24.45283 -50.25358 30321 ft 432 kts 328°
2026-05-03 22:06 -24.42511 -50.26664 30588 ft 434 kts 328°
2026-05-03 22:06 -24.39732 -50.27973 30831 ft 436 kts 328°
2026-05-03 22:06 -24.36944 -50.29284 31128 ft 436 kts 328°
2026-05-03 22:06 -24.34153 -50.30595 31493 ft 434 kts 328°
2026-05-03 22:07 -24.31376 -50.31899 31857 ft 433 kts 328°
2026-05-03 22:07 -24.28608 -50.33201 32122 ft 434 kts 328°
2026-05-03 22:07 -24.25824 -50.34511 32362 ft 436 kts 328°
2026-05-03 22:07 -24.23041 -50.35818 32695 ft 435 kts 328°
2026-05-03 22:08 -24.20262 -50.37121 33064 ft 433 kts 328°
2026-05-03 22:08 -24.17504 -50.38438 33370 ft 430 kts 325°
2026-05-03 22:08 -24.15060 -50.40204 33617 ft 415 kts 312°
2026-05-03 22:08 -24.12861 -50.42250 33981 ft 414 kts 312°
2026-05-03 22:09 -24.10642 -50.44253 34312 ft 413 kts 313°
2026-05-03 22:09 -24.08435 -50.46202 34586 ft 413 kts 313°
2026-05-03 22:09 -24.06197 -50.48162 34848 ft 412 kts 313°
2026-05-03 22:10 -24.01743 -50.52076 35485 ft 408 kts 313°
2026-05-03 22:10 -23.99540 -50.54014 35816 ft 406 kts 313°
2026-05-03 22:10 -23.97345 -50.55948 36090 ft 405 kts 313°
2026-05-03 22:10 -23.95152 -50.57878 36347 ft 404 kts 312°
2026-05-03 22:11 -23.92964 -50.59801 36637 ft 402 kts 312°
2026-05-03 22:11 -23.90786 -50.61712 36951 ft 400 kts 312°
2026-05-03 22:11 -23.88612 -50.63615 37171 ft 399 kts 313°
2026-05-03 22:11 -23.86443 -50.65512 37405 ft 400 kts 312°
2026-05-03 22:12 -23.84272 -50.67412 37594 ft 400 kts 312°
2026-05-03 22:12 -23.82097 -50.69315 37758 ft 400 kts 312°
2026-05-03 22:12 -23.79956 -50.71187 38049 ft 398 kts 312°
2026-05-03 22:13 -23.75613 -50.74986 38132 ft 401 kts 312°
2026-05-03 22:13 -23.71260 -50.78785 38110 ft 398 kts 312°
2026-05-03 22:14 -23.66945 -50.82549 38107 ft 395 kts 312°
2026-05-03 22:14 -23.62666 -50.86280 38106 ft 392 kts 312°
2026-05-03 22:15 -23.58413 -50.89987 38106 ft 391 kts 312°
2026-05-03 22:15 -23.54152 -50.93697 38107 ft 393 kts 312°
2026-05-03 22:16 -23.49873 -50.97421 38073 ft 394 kts 312°
2026-05-03 22:16 -23.45578 -51.01156 38112 ft 396 kts 312°
2026-05-03 22:17 -23.41285 -51.04887 38135 ft 399 kts 313°
2026-05-03 22:17 -23.36922 -51.08676 38131 ft 403 kts 313°
2026-05-03 22:18 -23.32733 -51.12682 38134 ft 395 kts 303°
2026-05-03 22:18 -23.29170 -51.17231 38123 ft 396 kts 303°
2026-05-03 22:19 -23.25586 -51.21795 38128 ft 398 kts 303°
2026-05-03 22:19 -23.21961 -51.26378 38118 ft 400 kts 303°
2026-05-03 22:20 -23.18319 -51.30966 38083 ft 401 kts 303°
2026-05-03 22:20 -23.14676 -51.35549 38082 ft 400 kts 303°
2026-05-03 22:21 -23.11060 -51.40094 38060 ft 400 kts 303°
2026-05-03 22:21 -23.07428 -51.44656 38082 ft 399 kts 303°
2026-05-03 22:22 -23.03797 -51.49214 38058 ft 398 kts 303°
2026-05-03 22:22 -23.00170 -51.53762 38063 ft 398 kts 303°
2026-05-03 22:23 -22.96545 -51.58305 38054 ft 398 kts 303°
2026-05-03 22:23 -22.92925 -51.62837 38067 ft 397 kts 303°
2026-05-03 22:24 -22.89334 -51.67329 38043 ft 396 kts 303°
2026-05-03 22:24 -22.85726 -51.71838 38051 ft 396 kts 303°
2026-05-03 22:25 -22.82128 -51.76358 38063 ft 395 kts 303°
2026-05-03 22:25 -22.78565 -51.80895 38053 ft 395 kts 303°
2026-05-03 22:26 -22.75002 -51.85434 38012 ft 396 kts 303°
2026-05-03 22:26 -22.71432 -51.89974 38039 ft 396 kts 303°
2026-05-03 22:27 -22.67853 -51.94518 38044 ft 397 kts 303°
2026-05-03 22:27 -22.64258 -51.99078 38047 ft 398 kts 303°
2026-05-03 22:28 -22.60649 -52.03651 38042 ft 400 kts 303°
2026-05-03 22:28 -22.57048 -52.08208 38045 ft 401 kts 303°
2026-05-03 22:29 -22.53413 -52.12805 38034 ft 402 kts 303°
2026-05-03 22:29 -22.49772 -52.17405 38040 ft 403 kts 303°
2026-05-03 22:30 -22.46120 -52.22015 38032 ft 403 kts 303°
2026-05-03 22:30 -22.42468 -52.26619 38037 ft 403 kts 303°
2026-05-03 22:31 -22.38819 -52.31218 38043 ft 403 kts 303°
2026-05-03 22:31 -22.35163 -52.35822 38026 ft 403 kts 303°
2026-05-03 22:32 -22.31531 -52.40390 38030 ft 403 kts 303°
2026-05-03 22:32 -22.27873 -52.44987 38020 ft 403 kts 303°
2026-05-03 22:33 -22.24219 -52.49576 38035 ft 403 kts 303°
2026-05-03 22:33 -22.20552 -52.54178 38029 ft 404 kts 303°
2026-05-03 22:34 -22.16889 -52.58770 38004 ft 404 kts 303°
2026-05-03 22:34 -22.13223 -52.63361 38018 ft 404 kts 303°
2026-05-03 22:35 -22.10175 -52.67175 38028 ft 403 kts 303°
2026-05-03 22:35 -22.05907 -52.72514 38025 ft 404 kts 303°
2026-05-03 22:36 -22.02848 -52.76336 38028 ft 405 kts 303°
2026-05-03 22:36 -21.99167 -52.80933 38022 ft 405 kts 303°
2026-05-03 22:37 -21.95482 -52.85529 38019 ft 405 kts 303°
2026-05-03 22:37 -21.91792 -52.90126 38026 ft 406 kts 303°
2026-05-03 22:38 -21.88099 -52.94721 38033 ft 406 kts 303°
2026-05-03 22:38 -21.84398 -52.99324 38020 ft 407 kts 303°
2026-05-03 22:39 -21.80690 -53.03932 38023 ft 407 kts 303°
2026-05-03 22:39 -21.76976 -53.08544 38010 ft 407 kts 304°
2026-05-03 22:40 -21.73271 -53.13141 38023 ft 407 kts 304°
2026-05-03 22:40 -21.69557 -53.17746 38013 ft 407 kts 304°
2026-05-03 22:41 -21.65867 -53.22316 38023 ft 408 kts 304°
2026-05-03 22:41 -21.62136 -53.26934 38016 ft 408 kts 304°
2026-05-03 22:42 -21.58411 -53.31540 37999 ft 408 kts 304°
2026-05-03 22:42 -21.54689 -53.36139 38009 ft 408 kts 304°
2026-05-03 22:43 -21.50961 -53.40743 38019 ft 408 kts 304°
2026-05-03 22:43 -21.47257 -53.45313 38015 ft 408 kts 304°
2026-05-03 22:44 -21.43515 -53.49917 38010 ft 409 kts 304°
2026-05-03 22:44 -21.39768 -53.54500 38018 ft 409 kts 304°
2026-05-03 22:45 -21.36012 -53.59091 38005 ft 409 kts 304°
2026-05-03 22:45 -21.32256 -53.63681 38018 ft 409 kts 304°
2026-05-03 22:46 -21.28521 -53.68243 38015 ft 410 kts 304°
2026-05-03 22:46 -21.24754 -53.72841 38016 ft 410 kts 304°
2026-05-03 22:47 -21.20983 -53.77439 38023 ft 410 kts 304°
2026-05-03 22:47 -21.17208 -53.82038 38000 ft 411 kts 304°
2026-05-03 22:48 -21.13432 -53.86636 38015 ft 411 kts 305°
2026-05-03 22:48 -21.09647 -53.91240 38018 ft 412 kts 305°
2026-05-03 22:49 -21.05858 -53.95846 38021 ft 412 kts 305°
2026-05-03 22:49 -21.02060 -54.00458 38013 ft 413 kts 305°
2026-05-03 22:50 -20.98265 -54.05063 38019 ft 412 kts 305°
2026-05-03 22:50 -20.94472 -54.09663 38015 ft 412 kts 305°
2026-05-03 22:51 -20.90708 -54.14229 38018 ft 411 kts 304°
2026-05-03 22:51 -20.87047 -54.18912 38024 ft 410 kts 303°
2026-05-03 22:52 -20.83443 -54.23623 38018 ft 409 kts 303°
2026-05-03 22:52 -20.79827 -54.28327 38019 ft 409 kts 303°
2026-05-03 22:53 -20.76202 -54.33018 38001 ft 409 kts 303°
2026-05-03 22:53 -20.72574 -54.37702 38018 ft 409 kts 303°
2026-05-03 22:54 -20.68943 -54.42384 38025 ft 409 kts 303°
2026-05-03 22:54 -20.65314 -54.47063 38034 ft 409 kts 303°
2026-05-03 22:55 -20.61681 -54.51741 38157 ft 409 kts 303°
2026-05-03 22:55 -20.59861 -54.54084 38279 ft 411 kts 303°
2026-05-03 22:55 -20.58032 -54.56438 38449 ft 411 kts 303°
2026-05-03 22:55 -20.56230 -54.58756 38694 ft 410 kts 303°
2026-05-03 22:56 -20.54413 -54.61091 38880 ft 409 kts 303°
2026-05-03 22:56 -20.52596 -54.63426 38991 ft 409 kts 303°
2026-05-03 22:56 -20.50741 -54.65744 39037 ft 414 kts 308°
2026-05-03 22:56 -20.48493 -54.67738 39057 ft 426 kts 319°
2026-05-03 22:57 -20.45901 -54.69341 39049 ft 435 kts 327°
2026-05-03 22:57 -20.40029 -54.71295 39052 ft 446 kts 338°
2026-05-03 22:58 -20.33984 -54.72847 39005 ft 446 kts 338°
2026-05-03 22:58 -20.27966 -54.74449 38989 ft 445 kts 338°
2026-05-03 22:59 -20.21968 -54.76089 38992 ft 444 kts 338°
2026-05-03 22:59 -20.16025 -54.77716 38992 ft 444 kts 337°
2026-05-03 23:00 -20.10075 -54.79449 38993 ft 442 kts 336°
2026-05-03 23:00 -20.04152 -54.81221 38978 ft 442 kts 337°
2026-05-03 23:01 -19.98231 -54.82983 38989 ft 441 kts 337°
2026-05-03 23:01 -19.92308 -54.84735 38989 ft 442 kts 337°
2026-05-03 23:02 -19.86379 -54.86483 38977 ft 442 kts 337°
2026-05-03 23:02 -19.80443 -54.88231 38987 ft 442 kts 337°
2026-05-03 23:03 -19.74546 -54.89967 38984 ft 443 kts 337°
2026-05-03 23:03 -19.68593 -54.91718 38983 ft 444 kts 338°
2026-05-03 23:04 -19.62638 -54.93468 38988 ft 445 kts 338°
2026-05-03 23:04 -19.56667 -54.95222 38991 ft 446 kts 338°
2026-05-03 23:05 -19.50673 -54.96981 38967 ft 446 kts 338°
2026-05-03 23:05 -19.44681 -54.98738 38980 ft 447 kts 338°
2026-05-03 23:06 -19.38682 -55.00497 38991 ft 447 kts 338°
2026-05-03 23:06 -19.32680 -55.02255 38984 ft 448 kts 338°
2026-05-03 23:07 -19.26726 -55.04044 38965 ft 447 kts 338°
2026-05-03 23:07 -19.20754 -55.05857 38975 ft 446 kts 338°
2026-05-03 23:08 -19.14785 -55.07666 38975 ft 446 kts 338°
2026-05-03 23:08 -19.08818 -55.09468 38969 ft 445 kts 338°
2026-05-03 23:09 -19.02861 -55.11264 38966 ft 445 kts 338°
2026-05-03 23:09 -18.96906 -55.13058 38963 ft 444 kts 338°
2026-05-03 23:10 -18.90956 -55.14849 38974 ft 444 kts 338°
2026-05-03 23:10 -18.85013 -55.16637 38959 ft 444 kts 338°
2026-05-03 23:11 -18.79102 -55.18414 38961 ft 444 kts 338°
2026-05-03 23:11 -18.73159 -55.20200 38944 ft 444 kts 338°
2026-05-03 23:12 -18.67207 -55.21987 38959 ft 444 kts 338°
2026-05-03 23:12 -18.61250 -55.23774 38959 ft 445 kts 338°
2026-05-03 23:13 -18.55276 -55.25565 38960 ft 445 kts 338°
2026-05-03 23:13 -18.49312 -55.27351 38960 ft 446 kts 338°
2026-05-03 23:14 -18.43368 -55.29130 38956 ft 447 kts 338°
2026-05-03 23:14 -18.37382 -55.30920 38957 ft 447 kts 338°
2026-05-03 23:15 -18.31395 -55.32710 38951 ft 447 kts 338°
2026-05-03 23:15 -18.25406 -55.34498 38955 ft 447 kts 338°
2026-05-03 23:16 -18.19416 -55.36286 38949 ft 447 kts 338°
2026-05-03 23:16 -18.13434 -55.38070 38953 ft 446 kts 338°
2026-05-03 23:17 -18.07458 -55.39851 38947 ft 446 kts 338°
2026-05-03 23:17 -18.01487 -55.41629 38947 ft 445 kts 338°
2026-05-03 23:18 -17.95568 -55.43391 38950 ft 444 kts 338°
2026-05-03 23:18 -17.89621 -55.45161 38943 ft 443 kts 338°
2026-05-03 23:19 -17.83680 -55.46926 38943 ft 443 kts 338°
2026-05-03 23:19 -17.77754 -55.48685 38949 ft 443 kts 338°
2026-05-03 23:20 -17.71821 -55.50446 38780 ft 446 kts 338°
2026-05-03 23:20 -17.68817 -55.51340 38230 ft 450 kts 338°
2026-05-03 23:20 -17.65813 -55.52229 37660 ft 448 kts 339°
2026-05-03 23:20 -17.62817 -55.53117 37017 ft 449 kts 339°
2026-05-03 23:21 -17.59808 -55.54012 36431 ft 449 kts 339°
2026-05-03 23:21 -17.56812 -55.54902 36021 ft 445 kts 339°
2026-05-03 23:21 -17.53878 -55.55773 35581 ft 443 kts 339°
2026-05-03 23:21 -17.50880 -55.56664 35162 ft 440 kts 339°
2026-05-03 23:22 -17.45052 -55.58396 34307 ft 436 kts 339°
2026-05-03 23:22 -17.42141 -55.59261 33876 ft 435 kts 339°
2026-05-03 23:22 -17.39238 -55.60124 33410 ft 432 kts 340°
2026-05-03 23:23 -17.37316 -55.60695 33124 ft 431 kts 340°
2026-05-03 23:23 -17.33479 -55.61833 32569 ft 427 kts 340°
2026-05-03 23:23 -17.31590 -55.62394 32298 ft 425 kts 340°
2026-05-03 23:23 -17.28753 -55.63235 31894 ft 422 kts 341°
2026-05-03 23:24 -17.25931 -55.64072 31493 ft 420 kts 341°
2026-05-03 23:24 -17.23127 -55.64903 31098 ft 418 kts 341°
2026-05-03 23:24 -17.20336 -55.65730 30707 ft 416 kts 341°
2026-05-03 23:24 -17.17559 -55.66553 30289 ft 414 kts 341°
2026-05-03 23:25 -17.14787 -55.67375 29878 ft 413 kts 342°
2026-05-03 23:25 -17.12033 -55.68190 29411 ft 410 kts 342°
2026-05-03 23:25 -17.09291 -55.69001 28990 ft 408 kts 342°
2026-05-03 23:25 -17.06575 -55.69805 28566 ft 405 kts 342°
2026-05-03 23:26 -17.03870 -55.70605 28147 ft 402 kts 342°
2026-05-03 23:26 -17.01183 -55.71399 27747 ft 399 kts 342°
2026-05-03 23:26 -16.98554 -55.72176 27351 ft 397 kts 342°
2026-05-03 23:26 -16.95904 -55.72959 26953 ft 395 kts 342°
2026-05-03 23:27 -16.93266 -55.73739 26563 ft 393 kts 342°
2026-05-03 23:27 -16.90642 -55.74514 26164 ft 391 kts 342°
2026-05-03 23:27 -16.88034 -55.75284 25758 ft 390 kts 343°
2026-05-03 23:27 -16.85428 -55.76053 25357 ft 388 kts 343°
2026-05-03 23:28 -16.82830 -55.76820 24956 ft 387 kts 343°
2026-05-03 23:28 -16.80238 -55.77585 24551 ft 387 kts 343°
2026-05-03 23:28 -16.77646 -55.78349 24152 ft 386 kts 343°
2026-05-03 23:28 -16.75094 -55.79102 23759 ft 385 kts 343°
2026-05-03 23:29 -16.72512 -55.79863 23329 ft 385 kts 343°
2026-05-03 23:29 -16.69944 -55.80620 22888 ft 383 kts 343°
2026-05-03 23:29 -16.67382 -55.81374 22488 ft 381 kts 343°
2026-05-03 23:29 -16.64837 -55.82124 22087 ft 378 kts 343°
2026-05-03 23:30 -16.62308 -55.82869 21707 ft 376 kts 344°
2026-05-03 23:30 -16.59793 -55.83609 21316 ft 374 kts 344°
2026-05-03 23:30 -16.57300 -55.84343 20932 ft 372 kts 344°
2026-05-03 23:30 -16.54817 -55.85074 20550 ft 370 kts 344°
2026-05-03 23:31 -16.52340 -55.85805 20146 ft 369 kts 343°
2026-05-03 23:31 -16.49892 -55.86669 19565 ft 374 kts 339°
2026-05-03 23:31 -16.47502 -55.87640 19135 ft 374 kts 338°
2026-05-03 23:31 -16.45087 -55.88649 18724 ft 373 kts 338°
2026-05-03 23:32 -16.42676 -55.89649 18333 ft 372 kts 339°
2026-05-03 23:32 -16.40269 -55.90633 17901 ft 371 kts 339°
2026-05-03 23:32 -16.37872 -55.91601 17507 ft 368 kts 339°
2026-05-03 23:32 -16.35494 -55.92556 17113 ft 365 kts 339°
2026-05-03 23:33 -16.33134 -55.93500 16737 ft 362 kts 339°
2026-05-03 23:33 -16.30789 -55.94438 16376 ft 359 kts 340°
2026-05-03 23:33 -16.28461 -55.95370 16005 ft 357 kts 340°
2026-05-03 23:33 -16.26151 -55.96296 15650 ft 354 kts 340°
2026-05-03 23:34 -16.23856 -55.97215 15283 ft 352 kts 340°
2026-05-03 23:34 -16.21593 -55.98123 15041 ft 346 kts 340°
2026-05-03 23:34 -16.19368 -55.99014 14804 ft 340 kts 340°
2026-05-03 23:34 -16.17182 -55.99891 14570 ft 334 kts 340°
2026-05-03 23:35 -16.15023 -56.00755 14335 ft 329 kts 340°
2026-05-03 23:35 -16.12928 -56.01594 14109 ft 325 kts 340°
2026-05-03 23:35 -16.10799 -56.02446 13804 ft 323 kts 340°
2026-05-03 23:35 -16.08703 -56.03285 13443 ft 322 kts 340°
2026-05-03 23:36 -16.06613 -56.04121 13068 ft 322 kts 340°
2026-05-03 23:36 -16.04552 -56.04946 12708 ft 321 kts 340°
2026-05-03 23:36 -16.02438 -56.05791 12337 ft 321 kts 341°
2026-05-03 23:36 -16.00355 -56.06624 11974 ft 320 kts 341°
2026-05-03 23:37 -15.98304 -56.07444 11628 ft 320 kts 341°
2026-05-03 23:37 -15.96235 -56.08271 11266 ft 315 kts 341°
2026-05-03 23:37 -15.94210 -56.09081 10907 ft 307 kts 341°
2026-05-03 23:37 -15.92236 -56.09871 10548 ft 301 kts 341°
2026-05-03 23:38 -15.90304 -56.10643 10204 ft 295 kts 341°
2026-05-03 23:38 -15.88406 -56.11401 9866 ft 290 kts 342°
2026-05-03 23:38 -15.86555 -56.12140 9605 ft 280 kts 342°
2026-05-03 23:38 -15.84781 -56.12909 9339 ft 273 kts 337°
2026-05-03 23:39 -15.83106 -56.13791 9088 ft 266 kts 335°
2026-05-03 23:39 -15.81470 -56.14683 8848 ft 265 kts 335°
2026-05-03 23:39 -15.79839 -56.15570 8609 ft 263 kts 335°
2026-05-03 23:39 -15.78218 -56.16446 8363 ft 262 kts 335°
2026-05-03 23:40 -15.76603 -56.17312 8116 ft 261 kts 335°
2026-05-03 23:40 -15.75015 -56.18160 7872 ft 259 kts 335°
2026-05-03 23:40 -15.73415 -56.19011 7656 ft 258 kts 335°
2026-05-03 23:40 -15.71819 -56.19860 7409 ft 257 kts 335°
2026-05-03 23:41 -15.70221 -56.20708 7087 ft 260 kts 335°
2026-05-03 23:41 -15.68602 -56.21568 6746 ft 263 kts 335°
2026-05-03 23:41 -15.66977 -56.22431 6604 ft 258 kts 335°
2026-05-03 23:41 -15.65366 -56.23287 6231 ft 263 kts 335°
2026-05-03 23:42 -15.63729 -56.24156 5906 ft 265 kts 335°
2026-05-03 23:42 -15.62096 -56.25023 5672 ft 263 kts 335°
2026-05-03 23:42 -15.60471 -56.25886 5422 ft 262 kts 335°
2026-05-03 23:42 -15.58854 -56.26744 5199 ft 259 kts 334°
2026-05-03 23:43 -15.57259 -56.27589 5006 ft 256 kts 335°
2026-05-03 23:43 -15.55580 -56.28077 4797 ft 248 kts
2026-05-03 23:43 -15.53989 -56.27618 4642 ft 233 kts 33°
2026-05-03 23:43 -15.52800 -56.26561 4417 ft 221 kts 53°
2026-05-03 23:44 -15.52022 -56.25236 4182 ft 211 kts 64°
2026-05-03 23:44 -15.51359 -56.23900 3930 ft 205 kts 65°
2026-05-03 23:44 -15.50716 -56.22589 3678 ft 203 kts 65°
2026-05-03 23:44 -15.50250 -56.21233 3391 ft 199 kts 90°
2026-05-03 23:45 -15.50591 -56.19914 3159 ft 184 kts 124°
2026-05-03 23:45 -15.51475 -56.19022 2969 ft 177 kts 148°
2026-05-03 23:45 -15.52536 -56.18422 2719 ft 169 kts 153°
2026-05-03 23:45 -15.53544 -56.17892 2470 ft 160 kts 154°
2026-05-03 23:46 -15.54522 -56.17379 2294 ft 155 kts 154°
2026-05-03 23:46 -15.55437 -56.16896 2162 ft 141 kts 154°
2026-05-03 23:46 -15.56310 -56.16434 2018 ft 137 kts 154°
2026-05-03 23:46 -15.57161 -56.15985 1904 ft 137 kts 154°
2026-05-03 23:47 -15.57997 -56.15543 1788 ft 136 kts 154°
2026-05-03 23:47 -15.58839 -56.15097 1661 ft 136 kts 154°
2026-05-03 23:47 -15.59693 -56.14645 1518 ft 140 kts 154°
2026-05-03 23:47 -15.60575 -56.14179 1385 ft 143 kts 154°
2026-05-03 23:48 -15.61452 -56.13714 1244 ft 140 kts 153°
2026-05-03 23:48 -15.62310 -56.13256 1098 ft 138 kts 153°
2026-05-03 23:48 -15.63167 -56.12794 915 ft 138 kts 152°
2026-05-03 23:48 -15.64020 -56.12334 732 ft 139 kts 153°
2026-05-03 23:49 -15.64845 -56.11906 605 ft 104 kts 153°
2026-05-03 23:49 -15.65270 -56.11678 600 ft 33 kts 152°
2026-05-03 23:49 -15.65385 -56.11619 599 ft 13 kts 154°
2026-05-03 23:49 -15.65461 -56.11644 598 ft 13 kts 238°
2026-05-03 23:50 -15.65441 -56.11720 598 ft 13 kts 330°
2026-05-03 23:50 -15.65388 -56.11749 599 ft 13 kts 330°
2026-05-03 23:50 -15.65284 -56.11803 600 ft 12 kts 333°
2026-05-03 23:50 -15.65209 -56.11844 602 ft 12 kts 333°
2026-05-03 23:51 -15.65136 -56.11882 603 ft 12 kts 332°
2026-05-03 23:51 -15.65077 -56.11921 604 ft 8 kts 294°
2026-05-03 23:51 -15.65085 -56.11958 604 ft 2 kts 246°
2026-05-03 23:51 -15.65087 -56.11962 604 ft 0 kts 243°